Showing default

TIANQI 17, 64059

Orbit data source: Space-Track

TIANQI 17, 64059 is a payload satellite owned by Guodian Gaokeji (CN) in LEO that was launched on Mon, 19 May 2025 UTC via a GUSHENXING 1 launch vehicle from the Yellow Sea Launch Area, China (YSLA). Payload-class satellites include a variety of spacecraft equipped with specific instruments for various scientific and technological missions. These include communications satellites like Starlink; space stations such as the ISS; scientific satellites like the Hubble; Earth observation satellites from companies like Planet Labs, Umbra, and HawkEye 360; GPS; miniature CubeSats for education and research; and military/defense satellites.

Loading next visibility...
Identifier
64059, 2025-105B
Orbit
LEO
Country
Flag of CNCN / PRC
Related business
Manufacturer
Shanghai ASES
Mission
Operational Commercial Communications
Bus & Motor
STARLIGHTB, Unknown motor
Mass
40 kg wet, ~40 kg dry
Launch date (UTC)
2025-05-19 (1 year ago)
Launch vehicle
GUSHENXING 1
Launch site
Yellow Sea Launch Area, China (YSLA)
Object type
Payload
Rocket body
Debris
Shape & HBR
Box, 0.3 m
Radar Cross Section
0.195 m², Medium (>0.1 m² and < 1m²)

Expand to show TLE details & history
Last TLE update: 10 hours ago

TLE from 10 hours ago
0 TIANQI 17
1 64059U 25105B   26171.42914918  .00000033  00000-0  11086-3 0  9997
2 64059  44.9816   7.2757 0010305  38.2118 321.9443 13.99156740 55650
Epoch: 2026-06-20T10:17Z
TLE epoch observation values (Epoch: 2026-06-20T10:17:58.489Z)
Latitude
-0.00003°
Longitude
-55.86194°
Altitude
890.814 km
Speed
7.411 km/s
True Right ascension
00h 29m 06s
True Declination
0° 00' 00"
Sunlit
Object was in daylight at epoch
Visualization orbit readout
Latitude
Unknown
Longitude
Unknown
Altitude
Unknown
Speed
Unknown
Apparent Right ascension
Unknown
Apparent Declination
Unknown
Sunlit
N/A
Visualization observer readout
Local Sidereal Time
07:19:51
Azimuth
Unknown
Elevation
Unknown
Doppler factor
Unknown
Orbital elements
Apogee altitude
905.736 km
Perigee altitude
890.739 km
Semi-major axis
7,276.375 km
Eccentricity
0.00103
Inclination
44.9816°
RAAN
7.2757°
Arg. of periapsis
38.2118°
True anomaly
321.87143°
Mean anomaly
321.9443°
Eccentric anomaly
321.90787°
Mean motion
3.4968 °/min
Orbital period
102.95 mins
BSTAR
0.00011086
Loading maneuver chart data...
Computing Atmospheric mass density...
Loading historical data...
Loading historical data...
Loading historical data...
Loading historical data...
Loading historical data...
Loading historical data...
Loading historical data...
Other satellites on launch #105 in the year 2025 (2025-05-19 UTC)

Documentation

Showing up to 5 results
|